Weather History for Alexander City, AL

Change the Weather History Date:

Thursday, January 16, 2014

  Actual Average (KAUO) Record (KAUO)
Temperature  
Mean Temperature 36 °F -  
Max Temperature 50 °F - 72 °F (1960)
Min Temperature 22 °F - 7 °F (1964)
Degree Days  
Heating Degree Days 29    
Month to date heating degree days  
Since 1 July heating degree days  
Moisture  
Dew Point 14 °F    
Average Humidity 44    
Maximum Humidity 82    
Minimum Humidity 14    
Precipitation  
Precipitation 0.00 in - 1.82 in (2013)
Month to date precipitation  
Year to date precipitation  
Sea Level Pressure  
Sea Level Pressure 30.08 in    
Wind  
Wind Speed 3 mph (SW)    
Max Wind Speed 10 mph    
Max Gust Speed -    
Visibility 10 miles    
Events      
T = Trace of Precipitation, MM = Missing Value Source: NWS Daily Summary

Daily Weather History Graph

Daily Weather History Graph

Search for Another Location

Airport:

Trip Planner

Search our weather history database for the weather conditions in past years. The results will help you decide how hot, cold, wet, or windy it might be!

Date:

Astronomy

Jan. 16, 2014 Rise Set
Actual Time 6:46 AM CST 5:01 PM CST
Civil Twilight 6:19 AM CST 5:27 PM CST
Nautical Twilight 5:49 AM CST 5:58 PM CST
Astronomical Twilight 5:19 AM CST 6:27 PM CST
Moon 5:47 PM CST 6:44 AM CST
Length of Visible Light 11h 08m
Length of Day
10h 14m
Full, 100% of the Moon is Illuminated
Jan 16
Full
Jan 23
Last Quarter
Jan 30
New
Feb 6
First Quarter
Feb 14
Full

Hourly Weather History & Observations

Time (CST) Temp. Windchill Dew Point Humidity Pressure Visibility Wind Dir Wind Speed Gust Speed Precip Events Conditions
12:15 AM 35.1 °F 30.1 °F 14.2 °F 42% 30.11 in 10.0 mi NW 5.8 mph - N/A   Clear
12:35 AM 35.1 °F 29.3 °F 14.5 °F 43% 30.11 in 10.0 mi NW 6.9 mph - N/A   Clear
12:55 AM 32.5 °F 26.2 °F 13.1 °F 45% 30.11 in 10.0 mi WNW 6.9 mph - N/A   Clear
1:15 AM 32.5 °F 28.1 °F 14.0 °F 46% 30.12 in 10.0 mi WNW 4.6 mph - N/A   Clear
1:35 AM 32.5 °F - 14.5 °F 48% 30.11 in 10.0 mi Calm Calm - N/A   Clear
1:55 AM 30.2 °F - 14.9 °F 53% 30.12 in 10.0 mi Calm Calm - N/A   Clear
2:15 AM 30.2 °F - 16.5 °F 57% 30.12 in 10.0 mi Calm Calm - N/A   Clear
2:35 AM 30.2 °F - 18.9 °F 63% 30.11 in 10.0 mi Calm Calm - N/A   Clear
2:55 AM 27.9 °F - 19.9 °F 72% 30.12 in 10.0 mi Calm Calm - N/A   Clear
3:15 AM 27.9 °F - 18.7 °F 68% 30.11 in 10.0 mi Calm Calm - N/A   Clear
3:35 AM 27.9 °F - 18.9 °F 69% 30.11 in 10.0 mi Calm Calm - N/A   Clear
3:55 AM 27.9 °F - 19.4 °F 71% 30.10 in 10.0 mi Calm Calm - N/A   Clear
4:15 AM 25.7 °F - 18.7 °F 75% 30.12 in 10.0 mi Calm Calm - N/A   Clear
4:35 AM 27.9 °F - 19.2 °F 70% 30.11 in 10.0 mi Calm Calm - N/A   Clear
4:55 AM 25.5 °F - 18.3 °F 74% 30.12 in 10.0 mi Calm Calm - N/A   Clear
5:15 AM 25.3 °F - 18.5 °F 75% 30.13 in 10.0 mi Calm Calm - N/A   Clear
5:35 AM 23.5 °F - 16.7 °F 75% 30.12 in 10.0 mi Calm Calm - N/A   Clear
5:55 AM 25.3 °F - 19.8 °F 79% 30.13 in 10.0 mi Calm Calm - N/A   Clear
6:15 AM 22.8 °F - 17.6 °F 80% 30.14 in 10.0 mi Calm Calm - N/A   Clear
6:35 AM 24.1 °F - 19.4 °F 82% 30.13 in 10.0 mi Calm Calm - N/A   Clear
6:55 AM 22.8 °F - 17.6 °F 80% 30.15 in 10.0 mi Calm Calm - N/A   Clear
7:15 AM 25.3 °F - 19.8 °F 79% 30.14 in 10.0 mi Calm Calm - N/A   Clear
7:35 AM 26.6 °F - 20.1 °F 77% 30.15 in 10.0 mi Calm Calm - N/A   Clear
7:55 AM 27.9 °F - 20.3 °F 73% 30.15 in 10.0 mi Calm Calm - N/A   Clear
8:15 AM 30.2 °F - 18.9 °F 63% 30.15 in 10.0 mi Calm Calm - N/A   Clear
8:35 AM 32.7 °F 29.6 °F 18.5 °F 56% 30.16 in 10.0 mi West 3.5 mph - N/A   Clear
8:55 AM 35.1 °F 31.0 °F 19.4 °F 53% 30.16 in 10.0 mi West 4.6 mph - N/A   Clear
9:15 AM 35.1 °F 32.2 °F 16.2 °F 46% 30.16 in 10.0 mi WSW 3.5 mph - N/A   Clear
9:35 AM 36.7 °F 34.1 °F 16.9 °F 45% 30.17 in 10.0 mi SW 3.5 mph - N/A   Clear
9:55 AM 37.6 °F 34.0 °F 15.1 °F 40% 30.16 in 10.0 mi WSW 4.6 mph - N/A   Clear
10:15 AM 39.7 °F 37.6 °F 13.5 °F 34% 30.15 in 10.0 mi WSW 3.5 mph - N/A   Clear
10:35 AM 40.1 °F 36.9 °F 9.3 °F 28% 30.15 in 10.0 mi WSW 4.6 mph - N/A   Clear
10:55 AM 40.1 °F 36.9 °F 8.4 °F 27% 30.14 in 10.0 mi WSW 4.6 mph - N/A   Clear
11:15 AM 42.1 °F 38.4 °F 7.9 °F 25% 30.11 in 10.0 mi WSW 5.8 mph - N/A   Clear
11:35 AM 43.0 °F 41.3 °F 6.8 °F 23% 30.10 in 10.0 mi WSW 3.5 mph - N/A   Clear
11:55 AM 44.6 °F 40.2 °F 6.3 °F 21% 30.09 in 10.0 mi WSW 8.1 mph - N/A   Clear
12:15 PM 46.0 °F 42.5 °F 5.7 °F 19% 30.08 in 10.0 mi WSW 6.9 mph - N/A   Clear
12:35 PM 48.7 °F - 4.3 °F 16% 30.08 in 10.0 mi West 5.8 mph - N/A   Clear
12:55 PM 49.8 °F - 1.9 °F 14% 30.06 in 10.0 mi West 6.9 mph - N/A   Clear
1:15 PM 50.2 °F - 4.5 °F 16% 30.05 in 10.0 mi West 10.4 mph - N/A   Clear
1:35 PM 50.2 °F - 4.1 °F 15% 30.04 in 10.0 mi SW 5.8 mph - N/A   Clear
1:55 PM 50.2 °F - 3.2 °F 15% 30.04 in 10.0 mi SW 6.9 mph - N/A   Clear
2:35 PM 50.2 °F - 5.7 °F 16% 30.03 in 10.0 mi SW 10.4 mph - N/A   Clear
2:55 PM 50.2 °F - 5.4 °F 16% 30.03 in 10.0 mi SSW 6.9 mph - N/A   Clear
3:15 PM 50.2 °F - 7.0 °F 17% 30.03 in 10.0 mi SSW 8.1 mph - N/A   Clear
3:35 PM 50.2 °F - 9.5 °F 19% 30.02 in 10.0 mi SSW 9.2 mph - N/A   Clear
3:55 PM 50.2 °F - 11.8 °F 22% 30.01 in 10.0 mi South 8.1 mph - N/A   Clear
4:15 PM 50.2 °F - 11.5 °F 21% 30.01 in 10.0 mi South 6.9 mph - N/A   Clear
4:35 PM 50.2 °F - 12.6 °F 22% 30.02 in 10.0 mi SSW 8.1 mph - N/A   Clear
4:55 PM 47.7 °F - 12.6 °F 24% 30.02 in 10.0 mi South 4.6 mph - N/A   Clear
5:15 PM 45.0 °F 43.5 °F 11.1 °F 25% 30.02 in 10.0 mi South 3.5 mph - N/A   Clear
5:35 PM 43.7 °F 42.1 °F 11.5 °F 27% 30.03 in 10.0 mi South 3.5 mph - N/A   Clear
5:55 PM 43.2 °F - 11.1 °F 27% 30.02 in 10.0 mi Calm Calm - N/A   Clear
6:15 PM 42.8 °F 41.1 °F 11.7 °F 28% 30.02 in 10.0 mi South 3.5 mph - N/A   Clear
6:35 PM 40.8 °F 38.8 °F 15.3 °F 35% 30.02 in 10.0 mi South 3.5 mph - N/A   Clear
6:55 PM 41.4 °F - 13.5 °F 32% 30.03 in 10.0 mi Calm Calm - N/A   Clear
7:15 PM 40.6 °F - 13.6 °F 33% 30.04 in 10.0 mi Calm Calm - N/A   Clear
7:35 PM 37.6 °F - 19.2 °F 48% 30.04 in 10.0 mi Calm Calm - N/A   Clear
7:55 PM 37.6 °F - 19.8 °F 49% 30.04 in 10.0 mi Calm Calm - N/A   Clear
8:15 PM 35.1 °F - 20.7 °F 56% 30.04 in 10.0 mi Calm Calm - N/A   Clear
8:35 PM 39.6 °F 37.4 °F 18.0 °F 42% 30.04 in 10.0 mi South 3.5 mph - N/A   Clear
8:55 PM 40.5 °F 38.4 °F 15.6 °F 37% 30.04 in 10.0 mi South 3.5 mph - N/A   Clear
9:15 PM 41.4 °F 39.4 °F 15.4 °F 35% 30.04 in 10.0 mi South 3.5 mph - N/A   Clear
9:35 PM 41.2 °F 39.2 °F 16.7 °F 37% 30.05 in 10.0 mi SSW 3.5 mph - N/A   Clear
9:55 PM 41.4 °F 39.4 °F 16.5 °F 37% 30.05 in 10.0 mi SSW 3.5 mph - N/A   Clear
10:15 PM 41.4 °F 38.4 °F 16.7 °F 37% 30.04 in 10.0 mi South 4.6 mph - N/A   Clear
10:35 PM 41.4 °F 39.4 °F 16.5 °F 37% 30.04 in 10.0 mi South 3.5 mph - N/A   Clear
10:55 PM 41.4 °F 39.4 °F 17.6 °F 38% 30.04 in 10.0 mi South 3.5 mph - N/A   Clear
11:15 PM 40.6 °F 37.5 °F 18.7 °F 41% 30.03 in 10.0 mi South 4.6 mph - N/A   Clear
11:35 PM 40.1 °F 38.0 °F 19.6 °F 44% 30.02 in 10.0 mi South 3.5 mph - N/A   Clear
11:55 PM 40.5 °F 37.3 °F 19.9 °F 44% 30.01 in 10.0 mi South 4.6 mph - N/A   Clear